カタログに戻る

TITAN 3C TRANSTAGE DEB

運用中LEO
NORAD 1646·DEBRIS·🇺🇸 United States

打ち上げ Oct 15, 1965 から Cape Canaveral Space Force Station

Loading…

次のパス (今後24時間)

TLE

最新Source: Space-Track

元期: Sep 13, 2026, 23:54 UTC

1 01646U 65082H   26256.99583940  .00000768  00000-0  10017-3 0  9999
2 01646  32.3085 175.5923 0002744 348.1131  11.9457 14.77634211233326

AllMySatでTITAN 3C TRANSTAGE DEBをリアルタイム追跡

Download on the App Store